Tracking 30160 objects as of 13-Feb-2025
HD Live streaming from Space Station
objects crossing your sky now

STARLINK-4110

Track STARLINK-4110 now!
10-day predictions
STARLINK-4110 is classified as:


NORAD ID: 53166
Int'l Code: 2022-083AL
Perigee: 545.9 km
Apogee: 547.9 km
Inclination: 53.2 °
Period: 95.4 minutes
Semi major axis: 6917 km
RCS: Unknown
Launch date: July 17, 2022
Source: United States (US)
Launch site: AIR FORCE EASTERN TEST RANGE (AFETR)
Your satellite tracking list
Your tracking list is empty




NASA's NSSDC Master Catalog

Two Line Element Set (TLE):
1 53166U 22083AL  25044.45723116  .00001634  00000-0  12071-3 0  9998
2 53166  53.2183 111.3519 0001399  95.0543 265.0609 15.08837430142604
Source of the keplerian elements: AFSPC